When you browse on this site, cookies collect data to enhance your experience and personalize the content and advertising you see.
Visit our Privacy Policy to learn more. By continuing to use the site, you agree to this use of cookies and data.
  • In Switzerland
  • List of Countries
  • For 7 days
  • Water Temperature
  • Weather Map
  • Weather Widgets
  • user-avatar
    Login

    Hourly Weather Maturín

    Today, 18 August, Sunday

    Time Temperature Precipitation Wind Pressure Humidity
    00:00 +25°C° 0.3 mm 1 mps 757 mmHg 96%
    01:00 +25°C° 0.3 mm 1 mps 757 mmHg 96%
    02:00 +24°C° 0.3 mm 1 mps 757 mmHg 96%
    03:00 +24°C° 0 mm 1 mps 757 mmHg 97%
    04:00 +24°C° 0 mm 1 mps 756 mmHg 97%
    05:00 +24°C° 0 mm 1 mps 756 mmHg 97%
    06:00 +23°C° 0 mm 0 mps 757 mmHg 94%
    07:00 +24°C° 0 mm 0 mps 757 mmHg 91%
    08:00 +25°C° 0 mm 0 mps 757 mmHg 88%
    09:00 +29°C° 0 mm 1 mps 757 mmHg 80%
    10:00 +31°C° 0 mm 1 mps 757 mmHg 71%
    11:00 +32°C° 0 mm 2 mps 757 mmHg 62%
    12:00 +34°C° 0 mm 2 mps 757 mmHg 59%
    13:00 +34°C° 0 mm 1 mps 756 mmHg 55%
    14:00 +34°C° 0 mm 1 mps 755 mmHg 52%
    15:00 +34°C° 0.3 mm 2 mps 755 mmHg 60%
    16:00 +32°C° 0.3 mm 2 mps 754 mmHg 68%
    17:00 +31°C° 0.3 mm 2 mps 754 mmHg 76%
    18:00 +29°C° 0.4 mm 2 mps 755 mmHg 82%
    19:00 +28°C° 0.4 mm 2 mps 755 mmHg 87%
    20:00 +26°C° 0.4 mm 2 mps 756 mmHg 93%
    21:00 +26°C° 0.1 mm 1 mps 756 mmHg 94%
    22:00 +25°C° 0.1 mm 1 mps 757 mmHg 95%
    23:00 +25°C° 0.1 mm 1 mps 757 mmHg 96%

    Tomorrow, 19 August, Monday

    Time Temperature Precipitation Wind Pressure Humidity
    00:00 +25°C° 0.1 mm 1 mps 757 mmHg 96%
    01:00 +25°C° 0.1 mm 1 mps 756 mmHg 97%
    02:00 +24°C° 0.1 mm 1 mps 756 mmHg 97%
    03:00 +24°C° 0 mm 1 mps 756 mmHg 97%
    04:00 +22°C° 0 mm 0 mps 756 mmHg 97%
    05:00 +22°C° 0 mm 0 mps 756 mmHg 97%
    06:00 +25°C° 0 mm 1 mps 756 mmHg 95%
    07:00 +26°C° 0 mm 1 mps 757 mmHg 92%
    08:00 +27°C° 0 mm 1 mps 757 mmHg 90%
    09:00 +28°C° 0.6 mm 1 mps 757 mmHg 85%
    10:00 +30°C° 0.6 mm 1 mps 757 mmHg 80%
    11:00 +31°C° 0.6 mm 1 mps 757 mmHg 74%
    12:00 +31°C° 1.1 mm 2 mps 757 mmHg 75%
    13:00 +31°C° 1.1 mm 2 mps 756 mmHg 76%
    14:00 +31°C° 1.1 mm 2 mps 755 mmHg 76%
    15:00 +31°C° 0.6 mm 2 mps 755 mmHg 79%
    16:00 +30°C° 0.6 mm 2 mps 755 mmHg 81%
    17:00 +30°C° 0.6 mm 2 mps 755 mmHg 83%
    18:00 +29°C° 0 mm 2 mps 755 mmHg 86%
    19:00 +27°C° 0 mm 2 mps 755 mmHg 90%
    20:00 +26°C° 0 mm 2 mps 756 mmHg 93%
    21:00 +26°C° 0 mm 1 mps 756 mmHg 94%
    22:00 +26°C° 0 mm 1 mps 757 mmHg 95%
    23:00 +25°C° 0 mm 1 mps 757 mmHg 95%

    Day after tomorrow, 20 August, Tuesday

    Time Temperature Precipitation Wind Pressure Humidity
    00:00 +25°C° 0 mm 1 mps 757 mmHg 96%
    01:00 +25°C° 0 mm 1 mps 756 mmHg 96%
    02:00 +25°C° 0 mm 1 mps 756 mmHg 96%
    03:00 +25°C° 0 mm 1 mps 756 mmHg 97%
    04:00 +25°C° 0 mm 1 mps 756 mmHg 97%
    05:00 +24°C° 0 mm 1 mps 756 mmHg 98%
    06:00 +25°C° 0 mm 1 mps 756 mmHg 94%
    07:00 +27°C° 0 mm 1 mps 757 mmHg 91%
    08:00 +28°C° 0 mm 1 mps 757 mmHg 88%
    09:00 +29°C° 0 mm 1 mps 757 mmHg 81%
    10:00 +30°C° 0 mm 1 mps 757 mmHg 74%
    11:00 +32°C° 0 mm 2 mps 757 mmHg 66%
    12:00 +33°C° 0 mm 1 mps 757 mmHg 63%
    13:00 +34°C° 0 mm 1 mps 756 mmHg 59%
    14:00 +34°C° 0 mm 1 mps 755 mmHg 55%
    15:00 +34°C° 0.1 mm 1 mps 755 mmHg 59%
    16:00 +33°C° 0.1 mm 1 mps 755 mmHg 63%
    17:00 +33°C° 0.1 mm 1 mps 754 mmHg 66%
    18:00 +31°C° 0.2 mm 1 mps 755 mmHg 75%
    19:00 +29°C° 0.2 mm 2 mps 755 mmHg 83%
    20:00 +26°C° 0.2 mm 2 mps 756 mmHg 92%
    21:00 +26°C° 0 mm 2 mps 756 mmHg 93%
    22:00 +26°C° 0 mm 2 mps 757 mmHg 95%
    23:00 +25°C° 0 mm 1 mps 757 mmHg 97%

    21 August, Wednesday

    Time Temperature Precipitation Wind Pressure Humidity
    00:00 +25°C° 0.2 mm 1 mps 757 mmHg 97%
    01:00 +25°C° 0.2 mm 1 mps 756 mmHg 98%
    02:00 +25°C° 0.2 mm 1 mps 756 mmHg 98%
    03:00 +25°C° 0 mm 1 mps 756 mmHg 98%
    04:00 +25°C° 0 mm 1 mps 756 mmHg 98%
    05:00 +23°C° 0 mm 0 mps 756 mmHg 98%
    06:00 +26°C° 0 mm 1 mps 757 mmHg 95%
    07:00 +27°C° 0 mm 1 mps 757 mmHg 92%
    08:00 +28°C° 0 mm 1 mps 758 mmHg 89%
    09:00 +29°C° 0.1 mm 1 mps 758 mmHg 81%
    10:00 +31°C° 0.1 mm 2 mps 758 mmHg 73%
    11:00 +32°C° 0.1 mm 2 mps 757 mmHg 65%
    12:00 +34°C° 0.1 mm 2 mps 757 mmHg 63%
    13:00 +34°C° 0.1 mm 2 mps 756 mmHg 61%
    14:00 +33°C° 0.1 mm 1 mps 755 mmHg 59%
    15:00 +34°C° 0.1 mm 2 mps 755 mmHg 63%
    16:00 +32°C° 0.1 mm 2 mps 755 mmHg 66%
    17:00 +32°C° 0.1 mm 2 mps 754 mmHg 69%
    18:00 +30°C° 0 mm 2 mps 755 mmHg 76%
    19:00 +28°C° 0 mm 2 mps 756 mmHg 83%
    20:00 +27°C° 0 mm 1 mps 756 mmHg 91%
    21:00 +26°C° 0 mm 1 mps 756 mmHg 93%
    22:00 +26°C° 0 mm 1 mps 757 mmHg 94%
    23:00 +25°C° 0 mm 1 mps 757 mmHg 96%

    22 August, Thursday

    Time Temperature Precipitation Wind Pressure Humidity
    00:00 +25°C° 0 mm 1 mps 757 mmHg 97%
    01:00 +25°C° 0 mm 1 mps 756 mmHg 97%
    02:00 +25°C° 0 mm 1 mps 756 mmHg 98%
    03:00 +25°C° 0 mm 1 mps 756 mmHg 98%
    04:00 +25°C° 0 mm 1 mps 756 mmHg 98%
    05:00 +24°C° 0 mm 1 mps 756 mmHg 98%
    06:00 +25°C° 0 mm 1 mps 757 mmHg 95%
    07:00 +26°C° 0 mm 1 mps 757 mmHg 92%
    08:00 +27°C° 0 mm 1 mps 758 mmHg 89%
    09:00 +29°C° 0.2 mm 1 mps 758 mmHg 82%
    10:00 +30°C° 0.2 mm 1 mps 758 mmHg 75%
    11:00 +32°C° 0.2 mm 2 mps 757 mmHg 68%
    12:00 +32°C° 0.1 mm 2 mps 757 mmHg 65%
    13:00 +34°C° 0.1 mm 2 mps 756 mmHg 62%
    14:00 +35°C° 0.1 mm 2 mps 755 mmHg 59%
    15:00 +34°C° 0.1 mm 2 mps 755 mmHg 63%
    16:00 +32°C° 0.1 mm 2 mps 755 mmHg 67%
    17:00 +31°C° 0.1 mm 3 mps 754 mmHg 71%
    18:00 +30°C° 0.1 mm 2 mps 755 mmHg 77%
    19:00 +28°C° 0.1 mm 2 mps 756 mmHg 83%
    20:00 +27°C° 0.1 mm 2 mps 756 mmHg 89%
    21:00 +26°C° 0.2 mm 2 mps 757 mmHg 91%
    22:00 +26°C° 0.2 mm 2 mps 757 mmHg 93%
    23:00 +26°C° 0.2 mm 2 mps 757 mmHg 95%

    23 August, Friday

    Time Temperature Precipitation Wind Pressure Humidity
    00:00 +25°C° 0 mm 1 mps 757 mmHg 96%
    01:00 +25°C° 0 mm 1 mps 756 mmHg 96%
    02:00 +25°C° 0 mm 1 mps 756 mmHg 97%
    03:00 +25°C° 0 mm 1 mps 756 mmHg 97%
    04:00 +25°C° 0 mm 1 mps 756 mmHg 98%
    05:00 +25°C° 0 mm 1 mps 756 mmHg 98%
    06:00 +26°C° 0.1 mm 1 mps 757 mmHg 95%
    07:00 +27°C° 0.1 mm 1 mps 757 mmHg 92%
    08:00 +28°C° 0.1 mm 1 mps 758 mmHg 89%
    09:00 +29°C° 0.4 mm 2 mps 758 mmHg 83%
    10:00 +30°C° 0.4 mm 2 mps 758 mmHg 78%
    11:00 +31°C° 0.4 mm 2 mps 758 mmHg 72%
    12:00 +32°C° 0.8 mm 2 mps 757 mmHg 72%
    13:00 +32°C° 0.8 mm 2 mps 756 mmHg 72%
    14:00 +32°C° 0.8 mm 2 mps 755 mmHg 72%
    15:00 +31°C° 0.8 mm 2 mps 755 mmHg 75%
    16:00 +31°C° 0.8 mm 2 mps 755 mmHg 78%
    17:00 +30°C° 0.8 mm 2 mps 755 mmHg 81%
    18:00 +29°C° 0.2 mm 2 mps 755 mmHg 85%
    19:00 +28°C° 0.2 mm 2 mps 756 mmHg 89%
    20:00 +26°C° 0.2 mm 2 mps 756 mmHg 94%
    21:00 +26°C° 0.2 mm 2 mps 756 mmHg 94%
    22:00 +26°C° 0.2 mm 1 mps 757 mmHg 95%
    23:00 +25°C° 0.2 mm 1 mps 757 mmHg 96%
    Show more